Hourly Data Report for June 09, 2006

TORONTO CITY
ONTARIO

43°40'00.000" N
79°24'00.000" W
112.50 m
6158355
71508
XTO

Download Data

Hourly Data (June 2006)
Hourly Data Report for June 9, 2006
TIME
LST
Temp Definition
°C
Dew Point Definition
°C
Rel Hum Definition
%
Precip. Amount Definition
mm

Wind Dir Definition
10's deg

Wind Spd Definition
km/h
Visibility Definition
km
Stn Press Definition
kPa
Hmdx Definition


Wind Chill Definition


Weather Definition


00:00 18.2 14.1 77   LegendMM LegendMM   99.60     LegendNANA
01:00 17.6 14.8 84   LegendMM LegendMM   99.52     LegendNANA
02:00 17.1 14.3 84   LegendMM LegendMM   99.52     LegendNANA
03:00 17.0 14.5 85   LegendMM LegendMM   99.47     LegendNANA
04:00 17.1 14.8 86   LegendMM LegendMM   99.46     LegendNANA
05:00 16.7 14.2 85   LegendMM LegendMM   99.44     LegendNANA
06:00 16.6 14.2 86   LegendMM LegendMM   99.47     LegendNANA
07:00 17.1 14.2 83   LegendMM LegendMM   99.49     LegendNANA
08:00 18.3 14.5 79   LegendMM LegendMM   99.46     LegendNANA
09:00 19.3 14.3 73   LegendMM LegendMM   99.45     LegendNANA
10:00 18.2 14.6 80   LegendMM LegendMM   99.47     LegendNANA
11:00 17.3 13.0 76   LegendMM LegendMM   99.46     LegendNANA
12:00 17.9 13.1 73   LegendMM LegendMM   99.48     LegendNANA
13:00 18.1 12.2 68   LegendMM LegendMM   99.50     LegendNANA
14:00 17.2 11.5 69   LegendMM LegendMM   99.52     LegendNANA
15:00 15.9 9.7 67   LegendMM LegendMM   99.55     LegendNANA
16:00 14.9 9.2 69   LegendMM LegendMM   99.59     LegendNANA
17:00 14.1 8.8 70   LegendMM LegendMM   99.63     LegendNANA
18:00 13.9 8.6 70   LegendMM LegendMM   99.65     LegendNANA
19:00 13.7 8.2 69   LegendMM LegendMM   99.71     LegendNANA
20:00 13.3 8.4 72   LegendMM LegendMM   99.70     LegendNANA
21:00 13.2 8.2 72   LegendMM LegendMM   99.76     LegendNANA
22:00 13.1 7.5 69   LegendMM LegendMM   99.76     LegendNANA
23:00 13.0 7.7 70   LegendMM LegendMM   99.73     LegendNANA

Notes on Data Quality.

Legend

  • E = Estimated
  • M = Missing
  • NA = Not Available*
  • [empty] = Indicates an unobserved value
Date modified: